This demonstration page uses our WeatherBlox Daily Observations layout. Learn more.

41.55636, -103.73856

Hourly Observations for December 11, 2015

Temp ( °F °C ) Dew Point ( °F °C ) Humidity (%) Winds ( mph kmh ) Pressure ( in mb ) Visibility ( mi km ) Precip ( " mm )
12:53 am 00:53 Clear 28 -2 23 -5 80 80 N 5 7 29.62 1003 10 16.09344 0 0
1:53 am 01:53 Clear 45 7 28 -2 53 53 WNW 23 37 29.5 999 10 16.09344 0 0
2:53 am 02:53 Clear 43 6 27 -3 53 53 WNW 24 39 29.5 999 10 16.09344 0 0
3:53 am 03:53 Clear 43 6 25 -4 49 49 WNW 17 28 29.5 999 10 16.09344 0 0
4:53 am 04:53 Clear 43 6 23 -5 46 46 WNW 15 24 29.5 999 10 16.09344 0 0
5:53 am 05:53 Clear 37 3 23 -5 56 56 WNW 13 20 29.59 1002 10 16.09344 0 0
6:53 am 06:53 Clear 39 4 23 -5 52 52 NW 15 24 29.59 1002 10 16.09344 0 0
7:53 am 07:53 Sunny 39 4 23 -5 52 52 NW 18 30 29.59 1002 10 16.09344 0 0
8:53 am 08:53 Partly Cloudy 43 6 27 -3 53 53 NW 20 31 29.56 1001 10 16.09344 0 0
9:53 am 09:53 Mostly Sunny 43 6 27 -3 53 53 NW 9 15 29.68 1005 10 16.09344 0 0
10:53 am 10:53 Mostly Sunny 46 8 27 -3 46 46 NW 12 19 29.65 1004 10 16.09344 0 0
11:53 am 11:53 Cloudy 46 8 23 -5 40 40 NNW 12 19 29.65 1004 10 16.09344 0 0
12:53 pm 12:53 Cloudy 46 8 23 -5 40 40 N 8 13 29.65 1004 10 16.09344 0 0
1:53 pm 13:53 Mostly Cloudy 48 9 21 -6 34 34 NNW 9 15 29.62 1003 10 16.09344 0 0
2:53 pm 14:53 Cloudy 46 8 21 -6 37 37 NE 8 13 29.68 1005 10 16.09344 0 0
3:53 pm 15:53 Mostly Sunny 43 6 21 -6 42 42 NNE 8 13 29.71 1006 10 16.09344 0 0
4:53 pm 16:53 Clear 36 2 21 -6 56 56 NE 9 15 29.77 1008 10 16.09344 0 0
5:53 pm 17:53 Mostly Cloudy 34 1 21 -6 60 60 NNE 8 13 29.83 1010 10 16.09344 0 0
6:53 pm 18:53 Cloudy 34 1 23 -5 65 65 NNE 8 13 29.83 1010 10 16.09344 0 0
7:53 pm 19:53 Mostly Cloudy 32 0 23 -5 69 69 SSW 5 7 29.85 1011 10 16.09344 0 0
8:53 pm 20:53 Cloudy 34 1 25 -4 70 70 Calm 29.85 1011 10 16.09344 0 0
9:53 pm 21:53 Cloudy 34 1 25 -4 70 70 Calm 29.85 1011 10 16.09344 0 0
10:53 pm 22:53 Cloudy 36 2 25 -4 65 65 ESE 3 6 29.88 1012 10 16.09344 0 0
11:53 pm 23:53 Cloudy 34 1 27 -3 75 75 Calm 29.88 1012 10 16.09344 0 0

Powered by AerisWeather